Regional Weather Roundup
Issued by NWS

Home | Current Version | Previous Version | Graphics & Text | Print | Product List | Glossary On
Versions: 1 2 3 4 5 6 7 8 9 10 11 12 13 14 15 16 17 18 19 20 21 22 23 24 25 26 27 28 29 30 31 32 33 34 35 36 37 38 39 40 41 42 43 44 45 46 47 48 49 50
000
ASUS43 KOAX 270010
RWRNE

WEATHER ROUNDUP FOR NEBRASKA
NATIONAL WEATHER SERVICE OMAHA NE
700 PM CDT WED JUL 26 2017

NOTES: SATELLITE DATA IS BEING USED TO AUGMENT CLOUD COVER ABOVE
       12000 FEET.
       "FAIR" INDICATES FEW OR NO CLOUDS BELOW 12,000 FEET WITH NO
       SIGNIFICANT WEATHER AND/OR OBSTRUCTIONS TO VISIBILITY.


NEZ001>004-019>022-054>056-270100-
NEBRASKA PANHANDLE

CITY           SKY/WX    TMP DP  RH WIND       PRES   REMARKS
SCOTTSBLUFF    CLOUDY    83  59  44 E14       30.17S
6HR MIN TEMP:  79; 6HR MAX TEMP:  84;

ALLIANCE       CLOUDY    81  58  45 NE14      30.16F
6HR MIN TEMP:  72; 6HR MAX TEMP:  83; 6HR PCP: TRACE;

CHADRON        CLOUDY    83  50  31 E10       30.13F
6HR MIN TEMP:  82; 6HR MAX TEMP:  86; 6HR PCP: TRACE;

GORDON         FAIR      81  55  41 NE13      30.16S
6HR MIN TEMP:  78; 6HR MAX TEMP:  83;

KIMBALL        CLOUDY    77  59  53 E12       30.22S
SIDNEY         MOSUNNY   83  60  45 NE12      30.18S
6HR MIN TEMP:  78; 6HR MAX TEMP:  84;

$$

NEZ057>060-069>072-079>082-270100-
SOUTHWEST NEBRASKA

CITY           SKY/WX    TMP DP  RH WIND       PRES   REMARKS
NORTH PLATTE   CLOUDY    82  67  60 E10       30.08F
6HR MIN TEMP:  75; 6HR MAX TEMP:  82; 6HR PCP: TRACE;

IMPERIAL       PTSUNNY   80  64  58 E15       30.10F
6HR MIN TEMP:  78; 6HR MAX TEMP:  86;

LEXINGTON      CLOUDY    78  70  76 NE5       30.06S
MCCOOK         CLOUDY    79  68  69 NE14      30.06R
6HR MIN TEMP:  75; 6HR MAX TEMP:  80;

OGALLALA       SUNNY     82  65  54 E7        30.11S
$$

NEZ005>010-023>029-035>040-094-270100-
NORTH CENTRAL NEBRASKA

CITY           SKY/WX    TMP DP  RH WIND       PRES   REMARKS
VALENTINE      CLOUDY    86  55  34 NE15      30.10S
6HR MIN TEMP:  83; 6HR MAX TEMP:  89;

AINSWORTH      PTSUNNY   80  66  63 E7        30.11R
BROKEN BOW     PTSUNNY   80  67  64 E9        30.07S
6HR MIN TEMP:  75; 6HR MAX TEMP:  83;

O`NEILL        CLOUDY    79  68  68 NE7       30.07S
ORD            CLOUDY    81  68  64 NE8       30.04R
6HR MIN TEMP:  74; 6HR MAX TEMP:  82;

THEDFORD       CLOUDY    78  66  66 E13       30.11S
$$

NEZ041-046>049-061>064-073>077-083>087-270100-
SOUTH CENTRAL NEBRASKA

CITY           SKY/WX    TMP DP  RH WIND       PRES   REMARKS
GRAND ISLAND   CLOUDY    78  73  84 NE7       30.04R
6HR MIN TEMP:  75; 6HR MAX TEMP:  81;

AURORA         CLOUDY    77  73  87 NE6       30.03R
HASTINGS       LGT RAIN  76  72  87 NE8       30.04S
6HR MIN TEMP:  76; 6HR MAX TEMP:  81; 6HR PCP: TRACE;

HEBRON         CLOUDY    79  73  81 NE10      29.99S
HOLDREGE       PTSUNNY   77  70  79 NE10      30.04S
KEARNEY        CLOUDY    78  69  73 NE12      30.05R
YORK           CLOUDY    77  73  88 NE8       30.01S
$$

NEZ011>018-030>034-042>045-270100-
NORTHEAST NEBRASKA

CITY           SKY/WX    TMP DP  RH WIND       PRES   REMARKS
NORFOLK        CLOUDY    80  69  69 NE9       30.02S
6HR MIN TEMP:  75; 6HR MAX TEMP:  84;

ALBION         CLOUDY    79  73  81 CALM      30.03S
BLAIR          RAIN      75  73  94 CALM      30.00S
COLUMBUS       CLOUDY    79  72  79 NE9       30.01S
FREMONT        PTSUNNY   77  74  89 CALM      30.00S
TEKAMAH        CLOUDY    80  73  79 CALM      29.98S
6HR MIN TEMP:  75; 6HR MAX TEMP:  81; 6HR PCP:  0.33;

WAYNE          CLOUDY    82  76  79 N9        30.01S HX  90
$$

NEZ050>053-065>068-078-088>093-270100-
SOUTHEAST NEBRASKA

CITY           SKY/WX    TMP DP  RH WIND       PRES   REMARKS
LINCOLN        CLOUDY    76  74  93 NE6       30.00R
6HR MIN TEMP:  73; 6HR MAX TEMP:  82; 6HR PCP:  2.37;

OMAHA EPPLEY   CLOUDY    76  73  91 CALM      29.98F
6HR MIN TEMP:  74; 6HR MAX TEMP:  77; 6HR PCP:  0.27;

BEATRICE       LGT RAIN  76  75  97 NE7       29.98F
FALLS CITY     CLOUDY    80  73  79 S5        29.96F
6HR MIN TEMP:  78; 6HR MAX TEMP:  83;

NEBRASKA CITY  RAIN      76  76 100 CALM      29.99S
PLATTSMOUTH    RAIN      75  74  95 N3        29.99S
$$

NEZ044-045-051>053-067-270100-
OMAHA AREA

CITY           SKY/WX    TMP DP  RH WIND       PRES   REMARKS
OMAHA EPPLEY   CLOUDY    76  73  91 CALM      29.98F
6HR MIN TEMP:  74; 6HR MAX TEMP:  77; 6HR PCP:  0.27;

BLAIR          RAIN      75  73  94 CALM      30.00S
FREMONT        PTSUNNY   77  74  89 CALM      30.00S
MILLARD        CLOUDY    78  76  92 CALM      29.98F
OFFUTT AFB     CLOUDY    76  74  95 N5        29.98S
PLATTSMOUTH    RAIN      75  74  95 N3        29.99S
WAHOO          MOCLDY    75  73  94 NE3       30.00R
$$




USA.gov is the U.S. government's official web portal to all federal, state and local government web resources and services.